Regional Weather Roundup
Issued by NWS

Home | Current Version | Previous Version | Text Only | Print | Product List | Glossary Off
Versions: 1 2 3 4 5 6 7 8 9 10 11 12 13 14 15 16 17 18 19 20 21 22 23 24 25 26 27 28 29 30 31 32 33 34 35 36 37 38 39 40 41 42 43 44 45 46 47 48 49 50

000
ASUS43 KOAX 281110
RWRNE

WEATHER ROUNDUP FOR NEBRASKA
NATIONAL WEATHER SERVICE OMAHA NE
600 AM CDT THU JUL 28 2016

NOTES: SATELLITE DATA IS BEING USED TO AUGMENT CLOUD COVER ABOVE
       12000 FEET.
       "FAIR" INDICATES FEW OR NO CLOUDS BELOW 12,000 FEET WITH NO
       SIGNIFICANT WEATHER AND/OR OBSTRUCTIONS TO VISIBILITY.

  * THESE STATIONS DO NOT REPORT WEATHER SUCH AS RAIN...SNOW OR FOG.

NEZ001>004-019>022-054>056-281200-
NEBRASKA PANHANDLE

CITY           SKY/WX    TMP DP  RH WIND       PRES   REMARKS
SCOTTSBLUFF    CLOUDY    62  58  86 N9        30.17R
ALLIANCE       TSTM      59  57  93 NE14      30.14F
CHADRON        RAIN      62  58  86 N3        30.21S FOG
KIMBALL        CLEAR     61  61 100 SE9       30.13F
SIDNEY         CLOUDY    61  59  93 SE6       30.13F
$$

NEZ057>060-069>072-079>082-281200-
SOUTHWEST NEBRASKA

CITY           SKY/WX    TMP DP  RH WIND       PRES   REMARKS
NORTH PLATTE   CLOUDY    62  60  93 NE6       30.11R
IMPERIAL       CLOUDY    65  61  87 CALM      30.10R
LEXINGTON      CLOUDY    63  61  91 CALM      30.11R
MCCOOK         CLOUDY    67  65  93 E5        30.07F FOG
OGALLALA       PTCLDY    64  59  85 NE5       30.11F
$$

NEZ005>010-023>029-035>040-094-281200-
NORTH CENTRAL NEBRASKA

CITY           SKY/WX    TMP DP  RH WIND       PRES   REMARKS
VALENTINE      CLOUDY    57  55  93 MISG      30.12R
AINSWORTH      CLEAR     57  57  98 W5        30.11S
BROKEN BOW     PTCLDY    59  57  93 NW6       30.10F
O`NEILL        MOCLDY    62  61  96 CALM      30.09S
ORD            CLEAR     60  57  89 SW5       30.08R
THEDFORD       CLOUDY    58  57  96 CALM      30.14S
$$

NEZ041-046>049-061>064-073>077-083>087-281200-
SOUTH CENTRAL NEBRASKA

CITY           SKY/WX    TMP DP  RH WIND       PRES   REMARKS
GRAND ISLAND   CLEAR     61  59  93 NW6       30.07R
AURORA         CLEAR     62  62  98 NW5       30.06R
HASTINGS       CLEAR     63  61  93 N7        30.07R
HEBRON         MOCLDY    65  63  93 CALM      30.03R
HOLDREGE       MOCLDY    62  61  95 CALM      30.09R
KEARNEY *      PTCLDY    63   7  11 NW6       30.09R
YORK             N/A     63  63 100 N7        30.05S
$$

NEZ011>018-030>034-042>045-281200-
NORTHEAST NEBRASKA

CITY           SKY/WX    TMP DP  RH WIND       PRES   REMARKS
NORFOLK        CLEAR     63  61  93 CALM      30.04R
ALBION         CLEAR     61  58  91 N5        30.08R
BLAIR          CLEAR     69  66  92 N3        30.01R
FREMONT        PTCLDY    67  65  94 CALM      30.02R
TEKAMAH        CLEAR     66  63  90 N6        30.00S
WAYNE          CLEAR     59  58  97 CALM      30.05R
$$

NEZ050>053-065>068-078-088>093-281200-
SOUTHEAST NEBRASKA

CITY           SKY/WX    TMP DP  RH WIND       PRES   REMARKS
LINCOLN        CLEAR     68  63  84 NW5       30.02R
OMAHA EPPLEY   MOCLDY    71  67  87 N3        29.99R
BEATRICE       CLEAR     65  63  93 NW5       30.01R
FALLS CITY     CLOUDY    70  69  97 W6        29.97R
NEBRASKA CITY  PTCLDY    68  68 100 N6        29.99R
PLATTSMOUTH    CLOUDY    71  69  94 N5        30.00R
$$

NEZ044-045-051>053-067-281200-
OMAHA AREA

CITY           SKY/WX    TMP DP  RH WIND       PRES   REMARKS
OMAHA EPPLEY   MOCLDY    71  67  87 N3        29.99R
BLAIR          CLEAR     69  66  92 N3        30.01R
FREMONT        PTCLDY    67  65  94 CALM      30.02R
MILLARD        CLOUDY    73  68  84 CALM      30.00R
OFFUTT AFB     CLOUDY    72  69  89 N6        29.99R
PLATTSMOUTH    CLOUDY    71  69  94 N5        30.00R
WAHOO          FAIR      65  64  94 N6        30.02R
$$




USA.gov is the U.S. government's official web portal to all federal, state and local government web resources and services.